z/d,0,0,50,50,100,100,200,200,300,300,400,400,500,500,750,750,1000,1000,2000,2000,3000,3000,4000,4000,4700,4700
2016.08.18-01:00,.59,77.29,.77,71.86,.96,73.08,1.08,72.18,1.06,73.49,.98,73.26,.88,76.05,.69,76.34,.49,78.86,.28,94.42,.09,71.04,.03,61.05,.01,270.00
2016.08.18-02:00,.55,78.73,.74,73.09,.94,72.58,1.08,71.25,1.06,73.09,.97,73.21,.87,76.65,.68,79.27,.48,79.40,.26,97.57,.06,76.17,.01,7.88,.02,270.00
2016.08.18-03:00,.49,78.57,.71,73.67,.94,72.19,1.08,70.67,1.06,72.71,.97,73.06,.85,77.11,.66,82.04,.48,80.40,.24,100.30,.04,85.51,.02,290.62,.02,270.00
2016.08.18-04:00,.45,76.02,.69,73.52,.94,71.99,1.10,70.63,1.07,72.46,.97,72.92,.85,77.37,.64,84.28,.47,81.40,.23,101.30,.03,93.48,.03,286.26,.02,270.00
2016.08.18-05:00,.42,71.40,.67,72.76,.96,71.98,1.12,71.07,1.08,72.36,.99,72.89,.84,77.45,.62,85.69,.48,82.10,.24,100.21,.04,92.21,.02,303.88,.02,270.00
2016.08.18-06:00,.41,65.82,.67,71.82,.98,72.18,1.15,71.84,1.10,72.39,1.01,73.02,.85,77.28,.61,85.90,.49,82.15,.26,97.22,.06,85.28,.02,7.93,.01,270.00
2016.08.18-07:00,.43,63.64,.68,70.99,1.00,72.41,1.17,72.64,1.13,72.47,1.03,73.21,.87,76.70,.61,84.81,.52,81.41,.29,93.58,.09,79.88,.05,43.66,.00,270.00
2016.08.18-08:00,.47,63.99,.71,70.72,1.03,72.54,1.19,73.34,1.15,72.65,1.06,73.53,.89,75.79,.62,82.85,.54,80.20,.32,90.45,.12,77.12,.09,54.09,.01,90.00
2016.08.18-09:00,.52,65.94,.75,71.43,1.05,72.64,1.21,73.98,1.18,73.09,1.09,74.07,.91,74.83,.64,80.61,.57,78.82,.34,88.10,.15,75.16,.12,57.37,.02,90.00
2016.08.18-10:00,.57,68.16,.78,72.61,1.06,72.39,1.21,74.33,1.19,73.55,1.10,74.58,.92,73.75,.65,78.40,.60,77.46,.36,86.81,.16,74.01,.15,58.53,.02,90.00
2016.08.18-11:00,.59,68.80,.79,73.67,1.06,71.69,1.20,74.29,1.19,73.87,1.10,74.88,.93,72.58,.66,76.43,.61,76.46,.37,86.93,.16,74.04,.16,59.19,.03,90.00
2016.08.18-12:00,.59,67.67,.78,74.43,1.05,70.89,1.19,74.00,1.18,74.14,1.08,75.07,.92,71.64,.65,75.05,.62,76.23,.36,88.13,.15,74.23,.15,58.67,.03,90.00
2016.08.18-13:00,.58,66.30,.76,74.42,1.05,70.13,1.17,73.44,1.17,74.27,1.06,75.14,.92,71.16,.65,74.59,.61,77.09,.34,90.33,.12,74.38,.13,56.97,.02,90.00
2016.08.18-14:00,.55,64.68,.72,73.25,1.05,69.55,1.16,72.67,1.15,74.30,1.04,75.23,.91,71.30,.63,75.18,.60,79.19,.31,93.53,.09,74.60,.10,54.34,.01,90.00
2016.08.18-15:00,.53,60.56,.69,70.74,1.05,69.20,1.15,71.89,1.13,74.38,1.02,75.49,.91,72.05,.62,76.49,.59,82.23,.28,96.88,.05,72.80,.07,50.18,.01,90.00
2016.08.18-16:00,.52,55.13,.67,67.27,1.05,69.15,1.14,71.38,1.12,74.67,1.00,75.96,.90,73.20,.60,77.97,.57,85.77,.26,99.54,.03,63.08,.04,43.88,.00,90.00
2016.08.18-17:00,.54,50.99,.68,63.93,1.06,69.49,1.15,71.43,1.12,75.31,1.00,76.61,.90,74.49,.59,79.00,.56,89.21,.25,100.46,.03,43.83,.03,40.34,.00,270.00
2016.08.18-18:00,.58,48.06,.71,61.77,1.07,70.24,1.16,72.16,1.12,76.26,1.00,77.29,.91,75.62,.59,79.14,.55,91.88,.26,99.51,.04,40.05,.03,46.63,.00,270.00
2016.08.18-19:00,.66,45.59,.76,60.79,1.09,71.03,1.18,73.26,1.12,77.17,1.00,77.60,.92,76.21,.60,78.05,.55,93.04,.27,97.21,.06,47.94,.05,56.73,.00,90.00
2016.08.18-20:00,.77,45.65,.81,60.98,1.11,71.64,1.20,74.45,1.12,77.71,1.00,77.38,.93,76.19,.62,76.01,.53,92.51,.29,94.91,.10,54.93,.07,61.94,.01,90.00
2016.08.18-21:00,.89,50.14,.88,62.73,1.12,72.21,1.21,75.62,1.12,77.90,1.01,76.86,.94,75.92,.65,73.86,.52,90.59,.32,93.33,.13,59.97,.10,63.67,.02,90.00
2016.08.18-22:00,1.00,56.88,.93,65.36,1.13,72.45,1.20,76.31,1.11,77.58,1.01,76.10,.95,75.50,.67,72.06,.51,87.72,.33,92.59,.15,63.58,.11,63.28,.02,90.00
2016.08.18-23:00,1.08,64.12,.98,68.32,1.14,72.39,1.19,76.40,1.10,76.93,1.00,75.42,.95,75.31,.69,71.30,.51,84.76,.33,93.09,.16,67.04,.12,62.25,.02,90.00
2016.08.18-24:00,1.12,70.53,1.00,71.02,1.14,72.24,1.17,75.96,1.09,76.21,1.00,75.05,.94,75.65,.71,72.02,.50,82.34,.32,94.72,.15,70.74,.11,60.15,.02,90.00
2016.08.19-01:00,1.10,75.53,1.00,72.92,1.14,72.10,1.14,75.03,1.08,75.49,.99,74.89,.93,76.42,.71,74.06,.49,80.72,.30,97.31,.13,74.84,.09,55.08,.01,90.00
2016.08.19-02:00,1.03,79.82,.97,73.99,1.14,72.24,1.12,73.89,1.07,74.88,.98,74.83,.91,77.54,.71,77.21,.49,80.29,.27,100.97,.09,81.59,.06,45.54,.00,270.00
2016.08.19-03:00,.94,83.04,.94,74.27,1.14,72.72,1.12,72.77,1.07,74.28,.97,74.55,.90,78.56,.70,80.79,.49,80.88,.25,104.97,.06,93.10,.03,23.14,.01,270.00
2016.08.19-04:00,.76,83.69,.91,74.32,1.14,73.78,1.13,72.20,1.08,73.88,.97,74.13,.88,79.37,.68,84.34,.49,82.21,.23,107.80,.04,109.50,.03,350.31,.01,270.00
2016.08.19-05:00,.67,82.03,.90,74.30,1.15,75.21,1.16,72.38,1.09,73.69,.98,73.63,.87,79.83,.65,87.15,.49,83.67,.23,107.84,.04,118.00,.03,347.01,.01,270.00
2016.08.19-06:00,.63,79.74,.89,74.24,1.16,76.68,1.19,73.32,1.11,73.73,1.00,73.27,.87,79.92,.63,88.48,.49,84.63,.24,104.91,.04,107.61,.03,15.08,.01,270.00
2016.08.19-07:00,.60,77.48,.89,73.92,1.16,77.69,1.21,74.68,1.13,73.84,1.03,73.11,.87,79.61,.62,87.89,.51,84.68,.26,100.24,.06,90.60,.06,40.73,.00,90.00
2016.08.19-08:00,.58,78.26,.89,73.26,1.14,77.91,1.23,76.08,1.15,73.97,1.06,73.26,.89,79.01,.63,85.69,.54,83.91,.29,95.90,.09,80.53,.09,52.21,.01,90.00
2016.08.19-09:00,.51,81.95,.90,72.45,1.14,77.22,1.23,77.17,1.17,74.09,1.10,73.78,.91,78.16,.65,82.67,.57,82.52,.33,92.62,.13,75.26,.13,57.04,.02,90.00
2016.08.19-10:00,.50,81.46,.95,72.66,1.15,76.40,1.24,78.04,1.21,74.54,1.14,74.97,.93,77.43,.67,79.96,.60,81.19,.35,90.74,.15,72.02,.16,58.50,.03,90.00
2016.08.19-11:00,.45,80.73,.98,73.42,1.16,75.45,1.23,78.18,1.22,74.80,1.16,76.08,.93,76.39,.69,77.79,.62,80.08,.36,90.21,.16,70.32,.18,59.29,.04,90.00
2016.08.19-12:00,.42,73.64,1.00,74.81,1.16,74.73,1.20,77.51,1.22,74.79,1.15,76.88,.92,75.01,.69,76.46,.63,79.52,.36,91.13,.16,69.60,.18,59.62,.04,90.00
2016.08.19-13:00,.44,62.28,1.00,76.20,1.15,74.16,1.18,76.10,1.21,74.56,1.13,77.31,.91,73.55,.69,76.13,.63,79.71,.34,93.30,.15,68.97,.17,59.13,.03,90.00
2016.08.19-14:00,.50,53.03,.97,76.80,1.15,73.61,1.16,74.44,1.20,74.47,1.10,77.67,.89,72.66,.67,76.99,.61,80.90,.32,96.75,.12,68.69,.14,58.40,.03,90.00
2016.08.19-15:00,.57,45.77,.94,76.24,1.14,73.06,1.16,73.13,1.19,74.84,1.07,78.26,.89,72.72,.65,78.80,.60,83.05,.28,100.67,.08,67.70,.10,57.08,.02,90.00
2016.08.19-16:00,.65,39.77,.90,74.61,1.14,72.60,1.16,72.47,1.19,75.70,1.05,79.06,.89,73.49,.63,80.98,.58,86.06,.26,104.13,.05,63.66,.07,53.68,.01,90.00
2016.08.19-17:00,.72,37.72,.87,72.57,1.14,72.54,1.18,72.68,1.19,76.97,1.04,79.95,.89,74.57,.61,82.87,.58,89.54,.24,105.80,.04,53.74,.05,46.14,.00,90.00
2016.08.19-18:00,.76,44.61,.87,70.86,1.16,73.17,1.20,73.81,1.19,78.62,1.04,80.92,.91,75.72,.60,83.87,.57,92.87,.24,104.95,.04,46.38,.04,38.29,.00,90.00
2016.08.19-19:00,.78,49.18,.89,69.30,1.19,74.02,1.23,75.24,1.19,80.19,1.04,81.56,.92,76.46,.60,83.31,.56,95.19,.25,102.10,.06,50.89,.05,41.56,.00,90.00
2016.08.19-20:00,.81,52.16,.92,68.17,1.20,74.76,1.24,76.60,1.18,81.34,1.03,81.61,.94,76.58,.60,81.04,.55,95.86,.27,98.77,.09,57.55,.07,47.99,.01,90.00
2016.08.19-21:00,.85,55.62,.97,68.41,1.21,75.57,1.25,77.83,1.17,81.97,1.03,81.12,.95,76.17,.62,77.68,.54,94.68,.30,96.14,.13,62.63,.10,52.02,.02,90.00
2016.08.19-22:00,.88,61.07,1.02,70.41,1.22,76.51,1.25,78.75,1.16,81.97,1.03,80.13,.97,75.36,.65,74.31,.53,91.96,.32,94.51,.16,66.74,.13,54.37,.02,90.00
2016.08.19-23:00,.90,68.21,1.07,73.90,1.22,77.54,1.24,79.14,1.14,81.30,1.03,78.72,.98,74.50,.69,72.15,.53,88.67,.33,94.09,.18,70.32,.15,55.14,.03,90.00
2016.08.19-24:00,.91,75.43,1.12,77.90,1.23,78.50,1.23,78.85,1.12,80.06,1.02,77.07,.99,73.99,.72,71.80,.52,85.77,.32,94.90,.17,73.99,.15,54.69,.03,90.00
2016.08.20-01:00,.92,81.29,1.13,81.25,1.22,79.08,1.20,77.81,1.10,78.38,1.01,75.32,.98,74.08,.73,73.24,.51,83.78,.31,96.92,.15,78.46,.14,53.15,.02,90.00
2016.08.20-02:00,.87,85.42,1.09,83.43,1.19,79.28,1.18,76.36,1.08,76.68,1.00,73.91,.97,75.07,.73,76.28,.50,82.94,.28,99.98,.12,84.62,.11,49.63,.02,90.00
2016.08.20-03:00,.79,88.38,1.02,84.35,1.16,79.23,1.16,74.93,1.07,75.21,.99,73.01,.96,76.69,.71,80.14,.50,83.06,.26,103.67,.09,95.07,.08,43.19,.01,90.00
2016.08.20-04:00,.70,90.41,.96,84.41,1.13,79.31,1.16,73.98,1.07,74.13,1.00,72.57,.94,78.43,.69,83.95,.49,83.91,.24,107.22,.05,114.28,.05,32.77,.00,270.00
2016.08.20-05:00,.63,91.87,.92,84.22,1.13,79.81,1.18,73.85,1.09,73.62,1.02,72.67,.94,80.13,.66,87.09,.49,85.18,.23,109.13,.04,137.37,.04,22.15,.00,270.00
2016.08.20-06:00,.57,94.06,.89,83.94,1.13,80.48,1.21,74.44,1.11,73.60,1.05,73.29,.94,81.64,.63,88.90,.49,86.35,.23,108.32,.03,140.73,.04,25.94,.00,270.00
2016.08.20-07:00,.49,98.82,.85,83.58,1.12,80.98,1.24,75.50,1.15,73.87,1.09,74.24,.95,82.74,.62,88.81,.50,86.84,.25,105.04,.03,108.57,.06,39.43,.00,90.00
2016.08.20-08:00,.41,104.46,.81,82.72,1.10,80.91,1.26,76.76,1.18,74.21,1.13,75.28,.97,83.37,.62,87.08,.53,86.64,.27,100.96,.06,79.37,.09,48.17,.01,90.00
2016.08.20-09:00,.31,110.47,.77,80.58,1.07,79.79,1.27,77.79,1.20,74.34,1.16,76.17,.98,83.52,.65,84.56,.57,85.97,.31,97.47,.09,68.78,.13,52.56,.02,90.00
2016.08.20-10:00,.22,112.31,.77,78.36,1.06,78.19,1.27,78.61,1.23,74.56,1.19,77.21,.99,83.47,.68,82.22,.60,85.05,.34,95.05,.13,64.59,.16,54.45,.03,90.00
2016.08.20-11:00,.21,109.98,.81,78.14,1.09,77.01,1.28,79.07,1.27,74.78,1.21,78.21,.98,83.05,.71,80.22,.63,83.89,.35,93.80,.16,63.21,.19,55.84,.04,90.00
2016.08.20-12:00,.22,111.15,.85,79.60,1.11,76.20,1.27,78.64,1.28,74.50,1.20,78.54,.96,81.65,.72,78.36,.63,82.54,.35,93.90,.17,63.97,.20,57.66,.04,90.00
2016.08.20-13:00,.22,116.23,.87,81.46,1.12,75.61,1.25,77.47,1.28,74.04,1.17,78.45,.92,79.55,.71,77.30,.63,81.72,.34,95.45,.17,65.34,.19,58.82,.04,90.00
2016.08.20-14:00,.18,121.82,.85,81.77,1.13,74.81,1.23,76.03,1.29,73.93,1.14,78.37,.88,77.45,.70,77.67,.62,82.07,.32,98.38,.15,66.83,.17,58.94,.04,90.00
2016.08.20-15:00,.10,117.73,.81,79.76,1.13,73.86,1.22,74.78,1.28,74.44,1.10,78.43,.85,75.78,.68,79.40,.61,83.77,.29,102.26,.12,68.56,.13,58.05,.03,90.00
2016.08.20-16:00,.04,66.03,.77,76.17,1.13,73.26,1.22,74.05,1.28,75.50,1.07,78.52,.83,74.49,.65,81.87,.59,86.68,.26,106.30,.08,70.64,.10,55.81,.02,90.00
2016.08.20-17:00,.09,25.67,.75,72.36,1.13,73.35,1.23,74.04,1.28,77.00,1.06,78.68,.83,73.66,.62,84.36,.58,90.35,.24,109.12,.06,71.61,.06,49.57,.01,90.00
2016.08.20-18:00,.17,9.18,.76,69.35,1.15,74.11,1.24,74.70,1.28,78.77,1.06,79.06,.86,73.51,.61,86.23,.56,94.01,.23,109.35,.05,69.83,.05,38.29,.00,90.00
2016.08.20-19:00,.27,3.69,.78,67.21,1.15,75.10,1.26,75.66,1.27,80.47,1.07,79.51,.89,73.73,.60,86.64,.56,96.67,.24,106.83,.05,68.04,.05,33.11,.00,90.00
2016.08.20-20:00,.38,5.20,.82,65.72,1.16,75.93,1.27,76.64,1.26,81.77,1.08,79.81,.93,73.98,.60,85.29,.55,97.83,.25,103.04,.08,68.72,.07,37.88,.01,90.00
2016.08.20-21:00,.50,10.31,.86,65.02,1.16,76.47,1.28,77.50,1.25,82.51,1.09,79.78,.97,74.07,.61,82.50,.55,97.28,.28,99.59,.11,70.15,.10,43.38,.01,90.00
2016.08.20-22:00,.61,17.77,.91,66.12,1.16,77.09,1.28,78.20,1.24,82.72,1.10,79.29,1.00,73.89,.64,78.96,.54,95.08,.31,97.28,.14,71.98,.13,47.35,.02,90.00
2016.08.20-23:00,.71,28.76,.98,69.70,1.17,78.17,1.27,78.58,1.22,82.43,1.10,78.26,1.03,73.54,.67,75.67,.54,91.78,.33,96.34,.17,74.15,.16,49.69,.03,90.00
2016.08.20-24:00,.81,41.82,1.05,74.74,1.19,79.59,1.27,78.44,1.21,81.57,1.11,76.82,1.05,73.22,.71,73.64,.53,88.35,.33,96.65,.17,76.56,.17,50.53,.03,90.00
2016.08.21-01:00,.89,52.52,1.10,79.56,1.19,80.94,1.26,77.63,1.19,80.19,1.11,75.24,1.06,73.23,.73,73.42,.53,85.77,.32,98.18,.16,79.71,.17,50.35,.03,90.00
2016.08.21-02:00,.94,59.25,1.09,82.99,1.16,81.75,1.23,76.29,1.15,78.51,1.09,73.92,1.05,73.90,.73,75.07,.52,84.46,.30,100.60,.13,84.28,.16,49.38,.03,90.00
2016.08.21-03:00,.96,62.88,1.04,84.50,1.11,81.70,1.21,74.85,1.12,76.85,1.08,73.27,1.02,75.33,.72,78.11,.51,84.40,.27,103.63,.10,92.16,.13,48.22,.02,90.00
2016.08.21-04:00,.95,65.15,.97,84.56,1.07,81.05,1.21,73.97,1.11,75.60,1.09,73.39,1.00,77.24,.70,81.88,.50,85.52,.25,107.03,.06,107.30,.10,45.95,.02,90.00
2016.08.21-05:00,.92,66.78,.90,83.84,1.04,80.07,1.23,73.75,1.12,74.66,1.10,73.90,1.00,78.97,.67,85.46,.50,87.51,.23,109.69,.04,134.22,.07,41.34,.01,90.00
2016.08.21-06:00,.85,67.81,.84,82.34,1.02,78.93,1.25,74.11,1.14,74.00,1.12,74.67,.99,80.43,.65,88.13,.49,89.62,.23,110.40,.03,158.81,.06,38.49,.01,90.00
2016.08.21-07:00,.77,68.04,.80,80.26,1.02,78.08,1.27,75.14,1.16,73.87,1.14,75.95,.99,81.90,.63,89.34,.49,90.87,.24,108.72,.02,141.03,.06,41.71,.01,90.00
2016.08.21-08:00,.70,66.56,.78,77.49,1.02,77.47,1.29,76.60,1.19,74.26,1.17,77.76,1.01,83.47,.62,88.98,.51,90.94,.26,105.76,.03,75.71,.08,45.65,.01,90.00
2016.08.21-09:00,.63,61.12,.77,73.04,1.02,76.20,1.30,77.78,1.21,74.64,1.19,79.54,1.03,84.75,.64,87.48,.54,90.20,.29,102.71,.06,59.26,.11,48.28,.02,90.00
2016.08.21-10:00,.60,55.34,.80,69.16,1.04,75.00,1.31,78.81,1.25,75.24,1.21,81.31,1.04,85.68,.68,85.83,.58,89.25,.32,100.32,.10,55.49,.14,49.27,.03,90.00
2016.08.21-11:00,.61,52.89,.86,67.64,1.08,74.23,1.32,79.37,1.27,75.55,1.20,82.29,1.04,85.60,.69,83.73,.60,87.77,.34,98.78,.14,57.18,.18,52.14,.04,90.00
2016.08.21-12:00,.64,54.99,.95,68.68,1.12,74.17,1.32,79.38,1.29,75.46,1.18,82.13,1.01,84.22,.70,81.26,.60,85.71,.35,98.27,.17,60.80,.20,55.85,.05,90.00
2016.08.21-13:00,.67,57.85,1.02,70.83,1.16,74.67,1.31,78.96,1.30,75.23,1.15,81.07,.97,82.06,.69,79.46,.60,83.93,.34,98.90,.18,64.33,.21,58.58,.05,90.00
2016.08.21-14:00,.68,57.16,1.05,72.14,1.16,74.94,1.28,78.05,1.30,74.93,1.11,79.50,.94,79.91,.69,79.10,.59,83.18,.32,100.68,.17,67.87,.19,60.06,.04,90.00
2016.08.21-15:00,.71,53.66,1.06,72.01,1.15,74.60,1.26,76.91,1.29,74.90,1.07,77.98,.91,78.55,.68,80.32,.59,83.91,.29,103.68,.15,71.86,.16,60.02,.04,90.00
2016.08.21-16:00,.76,51.66,1.07,71.26,1.14,73.95,1.24,75.99,1.27,75.26,1.04,76.63,.89,77.92,.66,82.45,.58,86.11,.26,107.51,.11,77.13,.12,58.17,.02,90.00
2016.08.21-17:00,.82,53.95,1.09,71.31,1.14,73.77,1.24,75.85,1.27,76.09,1.02,75.46,.87,77.51,.62,84.66,.56,89.68,.24,111.08,.08,83.18,.08,51.34,.01,90.00
2016.08.21-18:00,.85,57.36,1.09,72.07,1.14,74.22,1.24,76.64,1.26,77.30,1.03,74.71,.87,77.27,.60,86.50,.55,94.05,.23,112.64,.06,87.95,.06,35.14,.01,90.00
2016.08.21-19:00,.81,58.07,1.08,72.69,1.14,74.98,1.25,77.95,1.26,78.58,1.05,74.45,.88,77.12,.58,87.07,.55,97.77,.23,111.15,.05,88.70,.06,19.97,.00,90.00
2016.08.21-20:00,.76,57.55,1.07,72.72,1.15,75.85,1.25,79.36,1.25,79.81,1.08,74.94,.90,77.28,.58,85.88,.55,99.79,.25,107.63,.06,85.08,.07,18.23,.00,90.00
2016.08.21-21:00,.73,56.13,1.07,72.28,1.15,76.73,1.25,80.47,1.26,80.91,1.12,76.13,.94,77.77,.59,83.46,.55,100.08,.27,103.90,.08,80.05,.10,25.02,.01,90.00
2016.08.21-22:00,.71,55.46,1.09,72.30,1.16,77.70,1.25,80.92,1.26,81.64,1.15,77.34,.97,77.91,.62,80.10,.54,98.70,.30,101.14,.11,77.53,.13,34.58,.02,90.00
2016.08.21-23:00,.72,58.33,1.13,74.00,1.18,79.18,1.25,80.78,1.27,82.02,1.18,78.19,1.00,77.43,.65,76.52,.53,95.89,.32,99.67,.14,77.14,.17,42.12,.03,90.00
2016.08.21-24:00,.76,64.79,1.19,77.31,1.20,81.07,1.25,80.24,1.27,82.14,1.19,78.57,1.01,76.62,.68,74.06,.52,92.37,.32,99.30,.15,77.27,.20,46.44,.04,90.00
2016.08.22-01:00,.79,72.19,1.24,80.90,1.20,82.61,1.25,79.29,1.26,81.91,1.19,78.46,1.02,75.88,.71,73.57,.51,89.29,.32,99.94,.15,77.65,.22,48.63,.05,90.00
2016.08.22-02:00,.80,77.80,1.26,83.52,1.17,83.08,1.23,77.93,1.23,81.35,1.16,77.98,1.02,75.56,.73,75.03,.51,87.24,.30,101.37,.14,78.51,.21,49.82,.05,90.00
2016.08.22-03:00,.78,80.91,1.24,84.78,1.12,82.25,1.21,76.73,1.19,80.87,1.14,77.70,1.00,76.04,.74,77.90,.50,86.23,.28,103.37,.11,80.07,.19,50.49,.04,90.00
2016.08.22-04:00,.74,82.25,1.20,84.77,1.08,80.34,1.21,76.11,1.16,80.57,1.12,77.74,.98,76.90,.72,81.26,.49,86.16,.26,106.09,.07,83.25,.15,50.97,.03,90.00
2016.08.22-05:00,.72,82.88,1.16,84.24,1.05,78.17,1.21,76.15,1.14,80.27,1.10,77.77,.96,77.46,.70,84.48,.49,87.14,.24,109.02,.04,87.74,.12,50.67,.03,90.00
2016.08.22-06:00,.69,85.17,1.12,83.97,1.05,76.69,1.22,76.89,1.13,79.88,1.10,77.84,.95,77.79,.67,87.23,.48,88.74,.23,111.15,.02,87.95,.09,48.70,.02,90.00
2016.08.22-07:00,.63,89.91,1.07,84.32,1.06,76.40,1.23,78.19,1.13,79.55,1.11,78.23,.96,78.30,.64,89.13,.48,90.17,.24,111.57,.01,61.24,.07,46.46,.01,90.00
2016.08.22-08:00,.56,93.87,1.02,84.20,1.08,76.61,1.24,79.39,1.13,79.20,1.12,79.06,.98,79.25,.62,90.13,.49,91.16,.25,110.17,.03,50.48,.08,45.34,.02,90.00
2016.08.22-09:00,.48,91.82,.96,82.28,1.08,76.31,1.23,80.00,1.14,78.83,1.15,80.28,1.01,80.73,.63,90.31,.51,91.66,.28,107.69,.06,51.13,.10,43.90,.02,90.00
2016.08.22-10:00,.43,82.39,.90,78.95,1.08,75.57,1.23,80.13,1.15,78.60,1.17,81.71,1.04,82.34,.65,89.63,.55,91.54,.30,105.00,.10,53.52,.12,43.53,.02,90.00
2016.08.22-11:00,.48,78.42,.92,76.77,1.11,75.56,1.24,80.26,1.19,78.83,1.19,83.14,1.07,83.57,.67,88.13,.58,90.89,.32,102.94,.13,56.24,.16,44.46,.03,90.00
2016.08.22-12:00,.60,80.75,.97,76.80,1.15,76.17,1.26,80.21,1.21,78.97,1.19,83.82,1.07,83.75,.67,85.49,.58,89.43,.33,101.77,.16,60.65,.19,47.71,.04,90.00
2016.08.22-13:00,.74,84.96,1.03,78.17,1.17,76.84,1.27,79.85,1.22,78.71,1.16,83.49,1.04,82.91,.66,82.24,.58,87.35,.33,101.65,.18,66.06,.20,51.96,.05,90.00
2016.08.22-14:00,.88,88.05,1.09,80.02,1.20,77.53,1.27,79.60,1.22,78.50,1.13,82.84,1.01,82.01,.66,80.05,.57,85.96,.31,102.57,.18,70.61,.20,54.45,.05,90.00
2016.08.22-15:00,.98,88.92,1.12,80.93,1.20,77.53,1.26,79.26,1.21,78.23,1.10,82.10,.98,81.56,.65,79.59,.56,85.89,.29,104.43,.16,74.96,.18,55.04,.04,90.00
2016.08.22-16:00,1.01,87.94,1.08,80.65,1.17,76.88,1.24,78.95,1.18,78.01,1.06,81.48,.96,81.76,.65,80.64,.55,87.05,.27,106.97,.13,80.15,.15,53.64,.03,90.00
2016.08.22-17:00,1.03,85.34,1.04,79.48,1.14,76.01,1.21,78.77,1.17,77.83,1.04,80.81,.93,82.22,.63,82.70,.54,89.77,.25,109.96,.09,86.36,.11,48.69,.02,90.00
2016.08.22-18:00,1.06,80.81,1.02,78.39,1.14,75.86,1.21,79.14,1.16,77.93,1.03,80.30,.91,82.86,.61,85.61,.53,94.37,.24,112.46,.07,90.53,.09,36.28,.01,90.00
2016.08.22-19:00,1.11,78.10,1.01,77.97,1.14,76.74,1.21,80.13,1.16,78.40,1.03,79.99,.90,83.34,.59,88.07,.52,99.00,.23,112.91,.05,89.57,.08,22.68,.01,90.00
2016.08.22-20:00,1.14,77.66,.99,77.37,1.14,77.87,1.21,81.20,1.17,78.95,1.04,79.81,.90,83.22,.57,88.33,.51,101.73,.24,111.24,.05,84.61,.09,18.03,.01,90.00
2016.08.22-21:00,1.13,77.50,.96,76.13,1.14,78.87,1.22,82.20,1.19,79.83,1.07,80.26,.92,83.00,.57,86.47,.51,102.20,.26,108.67,.06,77.64,.11,19.33,.01,90.00
2016.08.22-22:00,1.09,77.94,.93,74.66,1.13,79.61,1.22,82.94,1.21,80.91,1.09,81.14,.94,82.66,.60,83.16,.52,100.69,.29,105.99,.08,72.30,.14,25.57,.02,90.00
2016.08.22-23:00,1.06,79.99,.91,73.73,1.11,79.85,1.21,83.03,1.21,81.74,1.10,81.74,.95,81.74,.63,79.33,.53,98.03,.31,104.01,.11,70.96,.18,33.82,.03,90.00
2016.08.22-24:00,1.07,84.77,.95,74.98,1.12,80.07,1.22,82.69,1.22,82.38,1.10,81.79,.95,80.36,.65,76.05,.51,94.83,.32,102.61,.14,71.45,.22,41.34,.04,90.00
2016.08.23-01:00,1.08,90.26,1.01,77.10,1.14,79.91,1.23,81.95,1.23,82.70,1.09,81.05,.96,78.74,.68,74.20,.50,91.49,.31,101.52,.15,72.55,.25,47.34,.05,90.00
2016.08.23-02:00,1.04,94.63,1.04,78.21,1.15,79.00,1.24,80.84,1.23,82.71,1.09,79.69,.97,77.36,.71,74.53,.49,88.74,.30,100.82,.15,73.14,.25,51.45,.06,90.00
2016.08.23-03:00,.95,96.69,1.06,78.02,1.15,77.81,1.24,79.99,1.21,82.80,1.09,78.43,.98,76.93,.74,76.94,.49,87.20,.29,100.69,.13,72.25,.24,53.83,.06,90.00
2016.08.23-04:00,.83,96.01,1.05,77.21,1.14,76.94,1.24,79.88,1.20,83.08,1.09,77.64,.99,77.39,.75,80.37,.49,86.79,.27,101.26,.10,68.95,.20,54.80,.05,90.00
2016.08.23-05:00,.73,91.58,1.05,76.64,1.15,76.61,1.23,80.18,1.18,83.09,1.10,77.02,.99,77.94,.75,83.86,.48,87.33,.25,102.82,.07,61.62,.16,54.41,.04,90.00
2016.08.23-06:00,.68,83.85,1.06,76.73,1.15,76.80,1.22,80.52,1.15,82.79,1.10,76.56,.98,78.27,.71,87.24,.47,88.68,.25,104.86,.06,50.09,.13,52.93,.03,90.00
2016.08.23-07:00,.66,77.10,1.07,78.15,1.15,77.89,1.19,81.09,1.11,82.44,1.08,76.63,.96,78.72,.67,90.34,.46,90.16,.25,106.39,.06,41.24,.10,50.00,.02,90.00
2016.08.23-08:00,.66,73.19,1.06,81.19,1.15,79.84,1.18,81.89,1.09,82.17,1.09,77.42,.95,79.48,.63,92.45,.46,90.78,.26,106.92,.06,39.47,.09,44.78,.02,90.00
2016.08.23-09:00,.61,68.94,1.00,84.08,1.14,81.52,1.17,82.41,1.09,82.11,1.12,78.94,.97,80.58,.62,93.43,.48,90.88,.28,106.42,.08,41.98,.10,37.29,.02,90.00
2016.08.23-10:00,.52,60.54,.90,84.93,1.10,81.84,1.16,82.20,1.10,82.00,1.14,80.77,1.00,81.84,.62,93.72,.51,91.29,.30,105.78,.11,46.79,.12,32.41,.02,90.00
2016.08.23-11:00,.46,50.53,.82,83.89,1.07,81.10,1.16,81.49,1.11,81.72,1.16,82.39,1.03,82.81,.62,93.03,.54,91.42,.32,105.59,.14,52.76,.15,33.16,.02,90.00
2016.08.23-12:00,.44,46.62,.81,83.04,1.07,80.38,1.17,80.74,1.13,81.37,1.16,83.53,1.03,83.16,.61,90.71,.55,90.45,.33,105.69,.17,58.98,.19,37.18,.03,90.00
2016.08.23-13:00,.40,49.38,.82,83.48,1.09,79.91,1.19,79.81,1.14,80.60,1.16,83.79,1.02,82.62,.60,86.60,.54,88.30,.32,105.92,.19,65.27,.21,42.13,.04,90.00
2016.08.23-14:00,.49,59.87,.84,84.97,1.11,79.62,1.22,78.71,1.16,79.37,1.14,83.19,1.01,81.53,.60,82.00,.54,86.16,.30,106.17,.19,71.05,.22,46.16,.04,90.00
2016.08.23-15:00,.59,70.40,.84,86.52,1.13,79.53,1.24,77.92,1.17,78.26,1.13,82.43,1.00,80.70,.60,78.84,.54,85.58,.28,106.26,.17,75.60,.21,47.73,.04,90.00
2016.08.23-16:00,.61,76.26,.81,85.94,1.12,79.04,1.25,77.56,1.18,77.58,1.11,81.99,.99,80.60,.61,77.93,.54,87.05,.25,106.18,.14,78.92,.19,46.20,.04,90.00
2016.08.23-17:00,.63,77.12,.76,81.91,1.10,78.20,1.26,77.88,1.18,77.64,1.09,82.16,.97,81.24,.62,78.82,.54,90.16,.24,106.44,.10,81.06,.15,41.20,.03,90.00
2016.08.23-18:00,.74,77.14,.75,75.42,1.10,77.52,1.25,78.77,1.17,78.24,1.07,82.73,.95,82.26,.60,80.75,.52,94.44,.22,107.07,.07,80.35,.13,33.79,.02,90.00
2016.08.23-19:00,.76,79.44,.77,69.73,1.09,77.64,1.22,80.18,1.15,79.19,1.03,83.59,.91,83.60,.58,83.44,.50,99.25,.22,106.98,.05,71.23,.13,27.64,.02,90.00
2016.08.23-20:00,.73,83.33,.78,65.97,1.06,78.21,1.18,81.39,1.11,79.72,.98,83.92,.87,84.33,.55,84.88,.48,102.43,.23,106.12,.05,62.08,.13,26.97,.02,90.00
2016.08.23-21:00,.66,87.50,.79,64.23,1.05,78.92,1.16,82.04,1.10,79.73,.97,83.58,.87,84.08,.55,83.72,.47,102.62,.25,105.13,.06,58.04,.14,29.32,.02,90.00
2016.08.23-22:00,.58,92.32,.82,63.93,1.05,79.59,1.17,82.44,1.13,79.91,1.00,83.44,.90,83.88,.58,81.69,.47,100.88,.27,104.10,.07,53.25,.15,31.32,.02,90.00
2016.08.23-23:00,.49,99.85,.86,65.27,1.07,80.14,1.19,82.72,1.17,80.48,1.03,83.62,.95,83.87,.63,80.05,.48,98.50,.29,102.77,.09,49.52,.18,33.48,.03,90.00
2016.08.23-24:00,.47,101.49,.92,68.98,1.10,80.56,1.22,82.71,1.21,81.12,1.06,83.46,.98,83.44,.68,78.91,.49,96.30,.30,101.09,.12,48.78,.20,36.78,.03,90.00
2016.08.24-01:00,.50,102.79,.98,74.17,1.12,80.68,1.25,82.24,1.24,81.47,1.07,82.29,.98,82.03,.70,77.81,.47,94.19,.31,99.32,.14,51.48,.23,41.84,.04,90.00
2016.08.24-02:00,.48,108.57,1.01,78.85,1.13,80.15,1.26,81.26,1.24,81.32,1.06,79.87,.97,79.57,.71,76.72,.45,91.38,.31,97.81,.16,55.52,.25,47.28,.05,90.00
2016.08.24-03:00,.43,108.41,1.03,81.96,1.13,79.19,1.25,80.20,1.22,80.98,1.04,76.84,.95,76.82,.71,76.48,.43,87.66,.31,96.96,.17,59.04,.24,51.65,.05,90.00
2016.08.24-04:00,.37,96.27,1.05,83.28,1.12,78.18,1.24,79.60,1.19,80.81,1.03,74.22,.93,74.97,.72,78.18,.43,84.32,.30,97.24,.15,60.36,.22,53.54,.05,90.00
2016.08.24-05:00,.37,74.71,1.05,83.89,1.13,77.53,1.23,79.68,1.17,80.77,1.04,72.57,.94,74.41,.73,81.41,.44,82.15,.29,98.94,.12,58.33,.18,51.90,.04,90.00
2016.08.24-06:00,.43,59.35,1.04,85.38,1.13,77.77,1.22,80.37,1.16,80.90,1.07,72.08,.95,74.93,.73,85.33,.45,81.62,.28,101.70,.09,50.55,.14,44.75,.03,90.00
2016.08.24-07:00,.51,53.19,1.02,87.54,1.14,78.63,1.21,81.13,1.14,81.10,1.10,72.68,.97,76.28,.71,89.72,.47,82.97,.26,105.07,.07,35.00,.11,30.25,.01,90.00
2016.08.24-08:00,.58,52.14,1.00,90.13,1.15,79.98,1.20,81.82,1.13,81.27,1.12,74.15,.97,78.18,.67,93.97,.48,85.34,.25,108.39,.07,23.01,.11,16.94,.01,90.00
2016.08.24-09:00,.59,51.32,.94,93.44,1.14,81.75,1.18,82.35,1.12,81.32,1.14,76.15,.97,80.13,.62,96.65,.48,87.09,.25,110.41,.08,24.04,.12,13.26,.00,90.00
2016.08.24-10:00,.53,43.80,.81,96.18,1.09,82.71,1.15,81.94,1.10,80.75,1.15,78.03,.98,81.47,.58,96.91,.50,88.10,.26,110.48,.09,33.33,.14,16.38,.01,90.00
2016.08.24-11:00,.50,31.97,.65,96.99,1.01,82.51,1.11,80.57,1.08,79.57,1.15,79.70,.98,82.29,.55,95.30,.51,89.06,.27,109.10,.11,44.57,.16,23.13,.01,90.00
2016.08.24-12:00,.51,26.94,.53,95.27,.98,81.92,1.11,79.04,1.09,78.36,1.16,81.29,.99,82.75,.52,91.68,.52,89.91,.28,107.06,.13,52.58,.18,29.13,.02,90.00